Météo par heure à Kytaihorod

Ce jour, 4 Août, Mercredi

Heure Température Précipitation Vent Pression Humidité
00:00 +18°C° 0 mm 1 m/s 739 mmHg 70%
01:00 +16°C° 0 mm 0 m/s 739 mmHg 71%
02:00 +16°C° 0 mm 0 m/s 739 mmHg 72%
03:00 +18°C° 0 mm 1 m/s 739 mmHg 73%
04:00 +18°C° 0 mm 1 m/s 739 mmHg 75%
05:00 +16°C° 0 mm 1 m/s 739 mmHg 76%
06:00 +19°C° 0 mm 1 m/s 739 mmHg 71%
07:00 +20°C° 0 mm 2 m/s 740 mmHg 66%
08:00 +21°C° 0 mm 2 m/s 740 mmHg 61%
09:00 +24°C° 0 mm 3 m/s 740 mmHg 56%
10:00 +25°C° 0 mm 3 m/s 740 mmHg 51%
11:00 +27°C° 0 mm 3 m/s 740 mmHg 46%
12:00 +28°C° 0 mm 4 m/s 739 mmHg 45%
13:00 +28°C° 0 mm 4 m/s 739 mmHg 43%
14:00 +29°C° 0 mm 4 m/s 739 mmHg 44%
15:00 +28°C° 0 mm 3 m/s 739 mmHg 46%
16:00 +28°C° 0 mm 3 m/s 739 mmHg 48%
17:00 +28°C° 0 mm 3 m/s 738 mmHg 51%
18:00 +26°C° 0 mm 3 m/s 738 mmHg 56%
19:00 +25°C° 0 mm 3 m/s 738 mmHg 61%
20:00 +22°C° 0 mm 3 m/s 737 mmHg 67%
21:00 +21°C° 0.4 mm 3 m/s 738 mmHg 73%
22:00 +20°C° 0.4 mm 3 m/s 738 mmHg 79%
23:00 +19°C° 0.4 mm 2 m/s 738 mmHg 85%

Demain, 5 Août, Jeudi

Heure Température Précipitation Vent Pression Humidité
00:00 +19°C° 0.5 mm 2 m/s 738 mmHg 87%
01:00 +18°C° 0.5 mm 2 m/s 738 mmHg 88%
02:00 +19°C° 0.5 mm 1 m/s 738 mmHg 89%
03:00 +18°C° 0.2 mm 2 m/s 737 mmHg 90%
04:00 +18°C° 0.2 mm 2 m/s 737 mmHg 91%
05:00 +17°C° 0.2 mm 3 m/s 737 mmHg 92%
06:00 +19°C° 0.1 mm 3 m/s 737 mmHg 88%
07:00 +20°C° 0.1 mm 3 m/s 737 mmHg 83%
08:00 +22°C° 0.1 mm 4 m/s 736 mmHg 79%
09:00 +25°C° 0 mm 5 m/s 736 mmHg 72%
10:00 +27°C° 0 mm 5 m/s 736 mmHg 65%
11:00 +28°C° 0 mm 6 m/s 736 mmHg 57%
12:00 +29°C° 0 mm 6 m/s 736 mmHg 54%
13:00 +30°C° 0 mm 6 m/s 735 mmHg 50%
14:00 +32°C° 0 mm 6 m/s 735 mmHg 47%
15:00 +32°C° 0 mm 6 m/s 734 mmHg 47%
16:00 +32°C° 0 mm 5 m/s 734 mmHg 48%
17:00 +32°C° 0 mm 4 m/s 733 mmHg 49%
18:00 +29°C° 0 mm 5 m/s 733 mmHg 50%
19:00 +28°C° 0 mm 6 m/s 732 mmHg 52%
20:00 +27°C° 0 mm 6 m/s 732 mmHg 53%
21:00 +26°C° 0.1 mm 6 m/s 732 mmHg 57%
22:00 +24°C° 0.1 mm 7 m/s 732 mmHg 62%
23:00 +23°C° 0.1 mm 7 m/s 732 mmHg 66%

Après-demain, 6 Août, Vendredi

Heure Température Précipitation Vent Pression Humidité
00:00 +22°C° 0.4 mm 6 m/s 732 mmHg 74%
01:00 +22°C° 0.4 mm 5 m/s 731 mmHg 82%
02:00 +21°C° 0.4 mm 4 m/s 731 mmHg 90%
03:00 +21°C° 0.1 mm 4 m/s 730 mmHg 92%
04:00 +21°C° 0.1 mm 4 m/s 730 mmHg 93%
05:00 +21°C° 0.1 mm 4 m/s 729 mmHg 95%
06:00 +22°C° 0 mm 4 m/s 730 mmHg 90%
07:00 +23°C° 0 mm 4 m/s 730 mmHg 85%
08:00 +25°C° 0 mm 5 m/s 730 mmHg 80%
09:00 +25°C° 0.6 mm 5 m/s 730 mmHg 80%
10:00 +23°C° 0.6 mm 5 m/s 730 mmHg 80%
11:00 +23°C° 0.6 mm 5 m/s 730 mmHg 81%
12:00 +25°C° 0.9 mm 4 m/s 730 mmHg 79%
13:00 +25°C° 0.9 mm 4 m/s 730 mmHg 77%
14:00 +26°C° 0.9 mm 4 m/s 730 mmHg 74%
15:00 +26°C° 0.6 mm 3 m/s 730 mmHg 74%
16:00 +27°C° 0.6 mm 2 m/s 730 mmHg 73%
17:00 +27°C° 0.6 mm 1 m/s 730 mmHg 73%
18:00 +25°C° 1.2 mm 2 m/s 730 mmHg 78%
19:00 +24°C° 1.2 mm 3 m/s 730 mmHg 83%
20:00 +21°C° 1.2 mm 4 m/s 730 mmHg 88%
21:00 +20°C° 0.9 mm 4 m/s 730 mmHg 90%
22:00 +19°C° 0.9 mm 4 m/s 731 mmHg 91%
23:00 +19°C° 0.9 mm 4 m/s 731 mmHg 92%

7 Août, Samedi

Heure Température Précipitation Vent Pression Humidité
00:00 +18°C° 0 mm 4 m/s 732 mmHg 93%
01:00 +18°C° 0 mm 4 m/s 732 mmHg 94%
02:00 +17°C° 0 mm 4 m/s 732 mmHg 95%
03:00 +17°C° 0 mm 4 m/s 732 mmHg 96%
04:00 +15°C° 0 mm 4 m/s 733 mmHg 96%
05:00 +15°C° 0 mm 4 m/s 733 mmHg 96%
06:00 +16°C° 0 mm 5 m/s 734 mmHg 92%
07:00 +16°C° 0 mm 5 m/s 734 mmHg 89%
08:00 +17°C° 0 mm 5 m/s 735 mmHg 85%
09:00 +19°C° 0 mm 5 m/s 735 mmHg 79%
10:00 +19°C° 0 mm 5 m/s 735 mmHg 73%
11:00 +20°C° 0 mm 5 m/s 736 mmHg 68%
12:00 +21°C° 0 mm 5 m/s 736 mmHg 62%
13:00 +23°C° 0 mm 5 m/s 736 mmHg 56%
14:00 +25°C° 0 mm 5 m/s 736 mmHg 51%
15:00 +25°C° 0 mm 4 m/s 736 mmHg 50%
16:00 +25°C° 0 mm 4 m/s 736 mmHg 50%
17:00 +25°C° 0 mm 4 m/s 736 mmHg 49%
18:00 +22°C° 0 mm 3 m/s 737 mmHg 55%
19:00 +20°C° 0 mm 3 m/s 737 mmHg 61%
20:00 +18°C° 0 mm 2 m/s 737 mmHg 67%
21:00 +18°C° 0 mm 2 m/s 737 mmHg 68%
22:00 +17°C° 0 mm 2 m/s 737 mmHg 68%
23:00 +16°C° 0 mm 2 m/s 738 mmHg 69%

8 Août, Dimanche

Heure Température Précipitation Vent Pression Humidité
00:00 +16°C° 0 mm 2 m/s 738 mmHg 69%
01:00 +16°C° 0 mm 2 m/s 738 mmHg 69%
02:00 +15°C° 0 mm 2 m/s 738 mmHg 69%
03:00 +15°C° 0 mm 2 m/s 738 mmHg 70%
04:00 +15°C° 0 mm 2 m/s 738 mmHg 70%
05:00 +14°C° 0 mm 1 m/s 738 mmHg 71%
06:00 +16°C° 0 mm 1 m/s 738 mmHg 66%
07:00 +19°C° 0 mm 1 m/s 739 mmHg 61%
08:00 +21°C° 0 mm 1 m/s 739 mmHg 56%
09:00 +23°C° 0 mm 1 m/s 739 mmHg 51%
10:00 +24°C° 0 mm 2 m/s 739 mmHg 46%
11:00 +26°C° 0 mm 2 m/s 739 mmHg 41%
12:00 +27°C° 0 mm 1 m/s 739 mmHg 40%
13:00 +28°C° 0 mm 1 m/s 739 mmHg 38%
14:00 +26°C° 0 mm 0 m/s 739 mmHg 37%
15:00 +26°C° 0 mm 0 m/s 739 mmHg 37%
16:00 +26°C° 0 mm 0 m/s 739 mmHg 38%
17:00 +26°C° 0 mm 0 m/s 739 mmHg 39%
18:00 +26°C° 0 mm 1 m/s 739 mmHg 44%
19:00 +24°C° 0 mm 1 m/s 739 mmHg 50%
20:00 +22°C° 0 mm 1 m/s 739 mmHg 56%
21:00 +22°C° 0 mm 1 m/s 739 mmHg 58%
22:00 +21°C° 0 mm 1 m/s 739 mmHg 61%
23:00 +20°C° 0 mm 1 m/s 740 mmHg 64%

9 Août, Lundi

Heure Température Précipitation Vent Pression Humidité
00:00 +20°C° 0 mm 1 m/s 739 mmHg 65%
01:00 +20°C° 0 mm 1 m/s 739 mmHg 66%
02:00 +19°C° 0 mm 1 m/s 739 mmHg 68%
03:00 +19°C° 0 mm 1 m/s 739 mmHg 69%
04:00 +19°C° 0 mm 1 m/s 739 mmHg 69%
05:00 +19°C° 0 mm 1 m/s 739 mmHg 70%
06:00 +20°C° 0 mm 2 m/s 739 mmHg 66%
07:00 +21°C° 0 mm 2 m/s 739 mmHg 62%
08:00 +24°C° 0 mm 2 m/s 739 mmHg 58%
09:00 +26°C° 0 mm 2 m/s 740 mmHg 53%
10:00 +27°C° 0 mm 1 m/s 740 mmHg 48%
11:00 +29°C° 0 mm 1 m/s 740 mmHg 43%
12:00 +29°C° 0 mm 1 m/s 740 mmHg 42%
13:00 +30°C° 0 mm 1 m/s 740 mmHg 41%
14:00 +31°C° 0 mm 1 m/s 740 mmHg 40%
15:00 +30°C° 0 mm 1 m/s 740 mmHg 42%
16:00 +30°C° 0 mm 1 m/s 740 mmHg 44%
17:00 +30°C° 0 mm 2 m/s 739 mmHg 46%
18:00 +28°C° 0 mm 2 m/s 740 mmHg 54%
19:00 +26°C° 0 mm 3 m/s 740 mmHg 62%
20:00 +24°C° 0 mm 3 m/s 740 mmHg 70%
21:00 +22°C° 0 mm 3 m/s 740 mmHg 74%
22:00 +21°C° 0 mm 3 m/s 740 mmHg 79%
23:00 +20°C° 0 mm 3 m/s 740 mmHg 83%
Voir plus

Nous avons besoin de votre consentement

Meteoprog et ses fournisseurs de services peuvent stocker et accéder à des données personnelles telles que des cookies, des identifiants d'appareils ou d'autres technologies similaires sur votre appareil et traiter ces données pour personnaliser le contenu et les publicités, ainsi que pour fournir des fonctionnalités de médias sociaux et analyser le trafic.

  • Stocker et/ou accéder à des informations sur votre appareil

    Des cookies, des identifiants d'appareils ou d'autres informations peuvent être stockés ou accessibles sur votre appareil aux fins indiquées ci-dessus.

  • Annonces et contenus personnalisés, mesure des annonces et des contenus, connaissance de l'audience et développement de produits

    Les annonces et le contenu peuvent être personnalisés en fonction d'un profil. D'autres données peuvent être ajoutées pour mieux personnaliser les annonces et le contenu. Les performances des publicités et du contenu peuvent être mesurées. Il est possible d'obtenir des informations sur le public qui a vu les publicités et le contenu. Ces données peuvent être utilisées pour développer ou améliorer l'expérience de l'utilisateur, les systèmes et les logiciels.

En cliquant sur "J'accepte", vous autorisez l'utilisation de cookies, des identifiants d'appareils, des balises web ou d'autres technologies similaires. Vos paramètres peuvent être modifiés dans le navigateur de votre appareil.

Dans certains cas, des intérêts légitimes peuvent être invoqués plutôt qu'un consentement. Vous pouvez en savoir plus à ce sujet dans notre Politique de confidentialité et de cookies.